Theta_e
292 293 293 292 292 292 291 293 288 291 291 296 299 301 303 305 305 306 306 307 308 309 311 312 313 313 313 313 313 313 312 311 313 319 320 323 327 330 332 335 344 340 341 345
289 292 292 290 291 292 293 292 292 294 293 299 301 302 301 303 304 305 305 306 308 310 311 311 312 313 313 313 313 314 311 310 312 314 316 321 326 330 330 333 344 341 341 343
286 291 291 287 292 293 294 295 294 289 294 299 299 300 303 305 305 306 306 307 308 309 311 312 313 314 314 314 314 312 311 310 312 313 313 318 323 326 329 334 343 343 345 347
286 289 280 291 298 297 294 296 297 297 298 300 302 305 306 307 307 306 307 308 310 310 311 313 314 314 314 313 312 311 310 310 310 309 312 317 321 325 331 334 341 343 347 352
284 284 289 292 296 296 294 294 300 300 299 301 303 304 304 307 307 307 307 309 310 310 311 313 314 317 313 311 310 309 308 308 307 307 308 316 321 326 330 336 340 344 348 350
288 282 280 293 298 301 300 289 300 300 300 301 300 294 299 306 308 308 309 309 307 310 312 312 315 315 312 309 308 308 308 308 307 309 312 317 321 323 329 334 340 346 348 349
287 284 290 298 300 301 288 291 301 301 301 301 298 300 304 305 305 307 307 308 309 308 308 313 313 314 309 308 308 309 307 308 309 311 314 320 322 320 328 331 341 344 345 347
289 285 283 300 299 292 299 303 302 302 302 300 301 302 303 303 303 304 304 305 306 305 306 309 310 309 307 307 309 309 310 312 313 316 318 321 319 318 321 330 336 342 342 341
292 292 301 303 302 304 303 302 303 303 302 301 300 301 302 302 303 303 304 304 306 305 305 307 307 306 304 306 308 309 312 313 313 315 315 315 316 316 321 332 332 334 335 332
293 297 298 301 303 303 302 302 303 304 302 302 300 300 299 300 300 301 301 301 302 303 303 302 304 305 305 307 308 309 311 313 312 311 313 319 316 320 330 331 330 332 331 328
295 297 297 298 300 302 303 301 302 303 302 300 299 298 300 297 297 298 299 300 301 300 300 301 304 305 307 307 309 309 311 312 312 314 313 314 318 328 332 333 332 336 337 334
287 293 293 294 301 300 299 300 300 300 300 302 299 298 298 296 298 298 298 299 299 300 300 302 303 305 307 309 310 312 312 314 315 320 320 321 318 311 298 301 302 305 313 326
289 294 294 297 300 302 300 300 300 301 300 295 297 296 295 295 296 296 297 297 297 299 300 302 304 306 308 311 313 313 317 314 316 319 321 322 321 318 314 307 300 298 302 305
297 298 296 299 299 300 299 300 298 296 296 294 294 295 295 294 295 295 295 297 298 299 300 302 304 306 311 313 316 317 316 306 315 323 323 323 324 326 327 325 322 319 299 303
296 296 299 302 300 296 298 295 294 292 292 291 292 292 294 294 294 295 297 298 298 299 299 301 304 308 312 315 317 318 317 318 323 325 326 324 328 329 328 327 323 315 311 302
295 300 301 298 295 297 294 292 291 291 291 291 292 292 293 294 295 296 297 298 296 296 299 300 303 309 314 316 318 319 319 308 313 327 328 330 326 329 328 325 324 323 317 310
296 298 298 295 295 295 291 291 291 290 291 291 290 292 293 293 294 294 294 296 296 297 301 304 306 312 312 311 319 319 321 321 306 328 329 328 328 328 327 327 325 322 318 314
301 302 301 297 296 294 293 292 291 291 290 290 291 291 291 292 291 292 293 295 297 299 300 304 305 302 306 309 313 315 323 324 327 328 329 329 330 329 328 326 324 322 323 318
301 301 302 297 297 295 294 293 292 291 291 290 290 289 291 291 289 291 294 293 295 292 295 294 293 294 301 307 309 320 326 326 327 329 329 316 327 329 327 323 323 322 322 322
302 302 301 298 299 296 295 295 294 292 290 289 289 289 288 288 287 290 291 290 293 290 292 292 296 316 327 315 309 329 328 328 328 329 329 328 328 325 323 314 323 324 324 322
300 300 300 301 298 297 296 296 295 292 289 289 288 288 288 289 287 289 287 286 289 291 290 296 308 322 329 323 325 329 327 328 326 327 326 325 325 323 323 322 321 319 319 316
299 300 300 302 299 297 298 297 295 294 291 289 288 288 286 285 287 287 289 286 288 287 292 298 301 297 316 301 328 330 331 328 327 325 323 322 321 321 318 317 314 313 313 313
298 298 300 300 300 298 298 298 296 294 294 289 287 286 286 286 285 285 285 288 288 288 292 293 292 292 296 331 331 329 325 324 323 322 321 319 317 314 311 310 308 307 305 304
295 297 299 301 302 299 297 297 299 296 295 294 291 290 288 286 286 288 289 288 286 288 291 289 291 294 301 325 326 324 322 320 318 316 311 303 309 308 305 302 302 300 299 294
293 294 297 299 300 300 301 299 298 297 295 295 294 291 290 289 286 286 288 288 286 288 290 288 289 291 302 308 309 313 314 314 313 312 308 304 301 300 299 298 298 297 295 292
291 291 292 297 299 299 300 301 297 296 296 294 295 292 290 290 288 287 288 287 287 287 289 290 290 293 295 296 298 301 302 302 304 303 301 299 296 293 293 292 293 292 290 289
293 290 293 293 296 298 300 299 299 295 295 295 294 294 291 290 289 287 286 286 286 286 287 288 288 288 290 291 292 293 294 295 294 295 295 294 293 291 289 288 288 287 287 287
Wind_Speed
22 25 24 26 26 24 23 22 20 19 25 20 24 22 17 19 19 15 11 13 15 14 14 13 13 15 15 14 14 14 17 17 18 17 17 19 18 17 17 19 18 18 18 18
24 24 25 25 26 23 25 24 24 26 28 25 28 24 20 21 18 13 13 14 14 16 18 18 16 15 15 15 16 17 18 19 19 20 20 20 19 18 17 20 20 18 18 19
17 19 16 15 21 22 20 20 21 22 23 22 19 21 18 6 10 17 13 17 19 18 17 17 18 16 15 17 17 17 20 21 20 20 22 21 20 19 19 19 18 18 19 19
13 15 14 14 13 11 14 15 16 14 17 15 11 16 9 12 15 18 16 18 19 17 18 19 20 19 17 18 18 19 21 21 19 21 21 20 18 19 19 18 18 17 19 20
6 9 18 25 11 8 8 12 16 15 8 9 13 13 16 13 16 16 15 17 17 19 22 22 21 21 20 20 20 21 22 20 18 20 21 22 17 19 16 17 17 18 18 19
6 7 6 9 6 7 13 14 15 18 16 18 19 17 16 22 24 24 22 20 16 23 21 21 23 18 18 19 18 19 23 15 17 17 19 17 19 19 18 15 18 15 17 18
12 9 10 11 8 9 11 10 18 17 20 21 18 16 20 21 21 24 23 25 22 21 21 21 19 18 18 19 20 19 16 16 19 19 20 18 19 15 16 15 17 18 19 17
5 6 7 9 14 9 13 20 20 21 18 19 19 23 24 22 24 26 27 26 25 22 21 20 17 17 20 20 19 19 21 19 18 19 16 14 17 15 13 19 19 18 17 14
6 8 19 14 15 18 17 20 20 19 21 20 22 25 25 25 28 28 29 24 23 23 24 21 21 19 19 17 20 22 21 17 16 19 17 18 16 13 16 20 14 12 12 11
11 6 15 16 22 14 19 20 20 21 23 25 25 26 27 24 25 25 24 21 20 23 20 18 17 17 15 18 17 20 19 14 16 17 18 10 8 13 15 11 12 11 12 11
16 16 24 8 19 23 22 21 25 25 24 23 25 23 24 22 19 19 20 18 17 18 16 18 19 16 16 17 18 17 17 15 17 24 33 21 15 12 13 11 11 14 14 15
6 19 16 18 24 25 27 24 24 25 27 25 23 24 25 18 18 17 17 18 16 18 18 16 17 17 16 17 16 16 16 9 12 6 5 12 12 11 21 12 14 16 14 13
6 15 20 22 19 21 23 25 27 24 23 21 19 19 19 18 17 17 16 17 16 16 17 17 16 17 17 15 16 14 11 11 11 5 7 9 11 13 14 14 23 18 11 16
17 14 17 19 23 24 23 23 21 20 15 17 17 17 16 15 16 15 15 16 16 16 18 17 17 17 16 14 12 10 8 10 8 2 6 9 11 13 14 14 14 11 15 11
14 18 20 24 22 26 21 20 17 16 15 15 14 15 14 15 15 15 15 15 15 16 16 16 16 16 12 13 10 11 5 5 4 5 9 11 10 12 13 15 13 11 10 12
21 20 20 20 21 23 23 20 16 14 14 13 13 15 17 16 15 16 14 13 13 13 15 15 14 13 11 9 9 9 6 6 4 7 9 13 7 10 13 14 14 13 11 8
17 19 21 19 19 20 21 17 16 17 15 13 14 15 15 15 14 14 13 12 12 14 14 14 14 11 11 9 6 2 3 2 4 8 9 10 10 10 14 13 14 13 10 10
17 20 19 21 18 17 23 18 16 15 14 15 15 15 13 12 12 13 13 12 13 11 11 11 11 13 12 10 9 4 5 5 7 9 10 11 12 12 13 12 14 13 11 10
18 18 21 19 16 14 17 17 16 16 15 14 14 14 13 12 12 13 12 12 10 10 10 15 21 18 18 18 16 8 12 11 9 9 9 11 9 11 12 12 14 13 14 11
17 17 20 19 17 15 17 15 16 14 15 13 14 13 13 12 12 12 11 12 9 7 15 18 18 14 16 17 15 12 12 12 12 12 12 10 11 11 9 13 15 13 11 9
16 17 18 19 19 13 14 15 16 15 14 16 16 16 15 13 12 12 11 10 12 16 17 14 9 5 11 13 12 12 12 10 10 10 10 11 11 11 11 15 13 10 10 10
15 14 17 20 17 18 14 13 17 15 14 16 15 15 14 11 11 11 8 10 11 17 11 10 10 11 1 5 10 11 12 12 13 10 10 10 10 11 11 11 12 11 11 10
14 15 15 18 16 16 17 18 14 18 14 14 13 15 14 9 8 11 12 16 12 17 12 11 17 14 6 8 14 13 12 11 10 10 10 11 11 12 11 12 11 11 11 10
13 14 14 16 16 15 18 16 14 17 16 12 14 13 13 13 11 10 9 12 19 16 11 14 14 16 12 11 12 10 10 10 11 12 12 12 12 12 12 11 11 12 13 13
14 14 14 15 15 14 18 17 15 14 16 15 11 12 14 10 8 10 12 12 16 14 12 17 19 18 12 11 11 11 10 10 10 11 12 12 12 12 12 11 11 12 12 12
12 10 11 15 12 11 12 13 11 13 12 13 11 12 12 10 10 12 11 13 12 14 12 12 13 11 11 11 11 11 11 10 11 11 12 12 13 12 13 13 13 12 13 13
10 11 11 11 11 12 13 12 11 12 11 11 11 11 11 11 11 12 14 12 11 12 12 11 11 13 11 11 11 11 11 11 12 12 12 12 12 13 13 13 13 13 13 12
Wind_Direction
276 273 272 270 264 251 239 259 260 266 281 266 269 278 283 285 280 274 275 271 262 258 269 275 274 281 280 282 291 297 291 292 287 280 276 275 269 263 267 269 263 244 239 224
279 281 279 274 270 278 277 277 270 263 254 265 266 271 279 299 269 267 259 265 278 290 294 289 279 270 274 281 286 289 285 289 286 277 272 266 262 263 264 264 258 240 235 223
279 285 284 279 260 264 274 270 266 255 260 264 273 268 274 308 281 284 307 296 284 283 281 286 289 286 278 279 282 283 281 286 279 275 272 261 259 262 261 261 253 233 232 227
279 300 277 275 305 286 284 289 276 258 295 289 328 340 343 320 299 300 297 303 308 310 303 300 291 284 282 280 281 281 283 282 277 280 273 265 257 252 254 262 244 230 224 218
250 248 279 293 318 350 329 297 300 298 336 297 323 307 270 264 274 305 304 303 309 298 291 287 285 283 283 280 281 284 285 281 274 264 267 264 256 252 254 257 233 223 218 202
227 262 278 9 311 348 315 276 13 342 329 317 314 295 294 327 323 307 299 293 288 281 286 288 273 280 287 285 285 275 273 273 270 271 266 265 262 264 258 267 232 212 205 195
231 246 274 10 337 329 272 339 326 322 314 321 312 300 308 301 288 283 277 279 288 279 271 272 287 285 285 287 285 286 283 264 259 263 265 257 257 262 258 268 221 202 194 178
249 242 266 19 338 329 322 308 312 307 315 295 290 293 289 290 293 295 295 294 291 287 286 288 298 308 298 290 283 280 272 260 254 261 266 261 258 259 252 259 205 189 179 159
289 295 308 341 323 319 305 297 301 301 297 289 288 298 305 305 304 303 303 300 300 297 296 295 296 297 285 280 279 278 273 268 271 269 266 255 235 250 275 200 174 157 142 132
311 302 325 319 311 320 314 304 299 295 292 305 309 300 301 308 306 300 299 298 294 289 285 288 281 275 280 278 276 276 278 274 274 271 263 220 222 265 194 157 152 138 142 140
296 296 339 309 317 305 312 313 294 296 300 307 304 299 304 303 286 287 282 281 285 283 278 281 282 277 274 275 272 271 268 268 258 243 242 256 241 173 147 148 160 161 148 154
281 306 297 290 300 309 301 300 293 306 309 310 315 305 298 287 286 291 295 295 293 287 282 278 279 277 269 269 278 279 276 283 291 84 141 112 102 87 50 71 71 93 106 146
285 287 283 281 287 301 314 320 326 324 317 306 300 300 298 293 292 292 285 283 280 280 282 281 279 277 273 264 265 278 301 309 320 57 102 116 110 106 104 71 71 61 96 114
301 312 310 305 310 322 329 332 322 310 312 309 305 301 297 294 292 287 286 285 286 281 279 281 279 275 275 270 263 272 295 289 306 69 96 104 115 127 128 123 112 93 40 93
318 303 290 296 343 333 331 324 315 315 319 315 311 304 298 296 293 287 284 286 286 287 282 274 270 270 271 277 282 272 247 280 251 132 127 113 124 129 121 123 110 108 96 68
294 300 309 348 327 330 340 330 322 320 318 315 313 315 311 302 296 294 295 300 294 283 285 285 274 267 271 310 260 252 244 247 199 145 133 131 118 123 123 120 125 120 118 122
315 324 327 345 346 347 335 327 323 320 320 322 318 312 306 304 304 305 301 297 288 278 275 273 272 291 302 284 272 49 208 153 180 140 145 132 133 148 133 134 129 122 127 141
312 313 341 354 349 352 335 336 325 329 327 323 325 322 317 315 314 308 305 303 292 294 287 283 295 293 272 258 247 235 233 169 172 150 145 147 147 135 126 119 122 129 135 145
322 336 344 354 2 360 340 340 339 333 336 331 325 329 322 328 321 313 318 317 309 315 320 315 307 297 270 242 233 193 197 183 165 148 135 123 123 130 121 118 118 136 139 142
335 344 339 349 12 10 348 347 342 345 343 332 334 338 339 341 321 321 333 331 333 315 310 293 282 266 142 150 171 168 170 171 146 139 138 131 130 117 114 120 131 124 111 103
334 338 341 345 359 15 360 350 347 350 342 346 347 346 342 339 329 333 346 338 335 324 317 317 342 36 142 142 161 148 149 135 135 121 121 115 115 123 129 124 123 109 112 104
331 343 334 337 6 0 357 356 356 352 1 352 344 351 340 346 345 349 356 340 323 332 335 355 354 345 73 121 134 151 136 123 116 113 121 119 116 109 108 113 113 106 102 101
335 344 339 333 359 7 359 356 11 358 357 4 353 354 351 346 345 351 351 353 349 347 360 356 340 350 86 148 107 99 103 114 117 112 107 109 110 111 109 108 104 104 98 99
338 343 339 341 347 2 6 357 359 4 351 356 8 11 2 355 352 356 351 351 360 356 4 355 2 12 30 59 88 92 87 88 96 98 96 97 102 105 104 98 95 94 98 95
349 346 339 345 357 354 352 6 355 5 353 352 8 15 13 5 2 341 352 359 6 6 12 8 17 29 34 47 61 74 83 90 95 99 99 98 97 96 96 95 95 100 100 95
356 351 340 340 355 349 345 343 358 7 358 354 5 10 8 8 4 5 1 4 14 13 21 20 25 32 39 40 52 65 72 76 81 85 91 94 95 95 94 95 96 95 97 98
5 356 353 354 351 349 344 346 358 7 5 2 2 12 7 12 11 10 14 13 18 23 22 27 31 34 39 45 50 55 61 69 75 85 86 91 95 98 98 98 96 97 98 97